Time,TemperatureF,DewpointF,PressureIn,WindDirection,WindDirectionDegrees,WindSpeedMPH,WindSpeedGustMPH,Humidity,HourlyPrecipIn,Conditions,Clouds,dailyrainin,SoftwareType,DateUTC
2013-04-26 00:02:00,45.0,38.0,30.39,NW,317,0.0,0.0,77,0.00,,,0.01,,2013-04-26 05:02:00,
2013-04-26 00:12:00,45.0,38.0,30.39,NW,317,0.0,0.0,77,0.00,,,0.01,,2013-04-26 05:12:00,
2013-04-26 00:22:00,45.0,39.0,30.39,NW,317,0.0,0.0,78,0.00,,,0.01,,2013-04-26 05:22:00,
2013-04-26 00:32:00,44.0,37.0,30.40,NW,317,0.0,0.0,77,0.00,,,0.01,,2013-04-26 05:32:00,
2013-04-26 00:42:00,44.0,37.0,30.40,NW,317,0.0,0.0,77,0.00,,,0.01,,2013-04-26 05:42:00,
2013-04-26 00:52:00,45.0,39.0,30.39,NW,317,0.0,0.0,79,0.00,,,0.01,,2013-04-26 05:52:00,
2013-04-26 01:02:00,46.0,39.0,30.40,East,88,0.0,0.0,75,0.00,,,0.01,,2013-04-26 06:02:00,
2013-04-26 01:11:00,46.0,39.0,30.40,East,88,0.0,0.0,75,0.00,,,0.01,,2013-04-26 06:11:00,
2013-04-26 01:21:00,46.0,37.0,30.39,East,88,0.0,0.0,72,0.00,,,0.01,,2013-04-26 06:21:00,
2013-04-26 01:32:00,47.0,38.0,30.39,East,88,0.0,0.0,71,0.00,,,0.01,,2013-04-26 06:32:00,
2013-04-26 01:42:00,47.0,38.0,30.39,East,88,0.0,0.0,71,0.00,,,0.01,,2013-04-26 06:42:00,
2013-04-26 01:52:00,47.0,38.0,30.39,East,88,0.0,0.0,70,0.00,,,0.01,,2013-04-26 06:52:00,
2013-04-26 02:01:00,47.0,38.0,30.39,East,88,0.0,0.0,71,0.00,,,0.01,,2013-04-26 07:01:00,
2013-04-26 02:11:00,47.0,38.0,30.39,East,88,0.0,0.0,71,0.00,,,0.01,,2013-04-26 07:11:00,
2013-04-26 02:22:00,46.0,38.0,30.39,East,88,0.0,0.0,74,0.00,,,0.01,,2013-04-26 07:22:00,
2013-04-26 02:31:00,45.0,38.0,30.39,East,88,0.0,0.0,77,0.00,,,0.01,,2013-04-26 07:31:00,
2013-04-26 02:42:00,45.0,38.0,30.39,East,88,0.0,0.0,77,0.00,,,0.01,,2013-04-26 07:42:00,
2013-04-26 02:52:00,45.0,38.0,30.39,East,88,0.0,0.0,75,0.00,,,0.01,,2013-04-26 07:52:00,
2013-04-26 03:02:00,46.0,38.0,30.40,East,88,0.0,0.0,73,0.00,,,0.01,,2013-04-26 08:02:00,
2013-04-26 03:11:00,46.0,38.0,30.40,East,88,0.0,0.0,73,0.00,,,0.01,,2013-04-26 08:11:00,
2013-04-26 03:21:00,45.0,37.0,30.40,East,88,0.0,0.0,73,0.00,,,0.01,,2013-04-26 08:21:00,
2013-04-26 03:32:00,46.0,37.0,30.40,East,98,0.0,0.0,72,0.00,,,0.01,,2013-04-26 08:32:00,
2013-04-26 03:42:00,46.0,37.0,30.40,East,98,0.0,0.0,72,0.00,,,0.01,,2013-04-26 08:42:00,
2013-04-26 03:52:00,47.0,37.0,30.40,SSE,150,0.0,0.0,68,0.00,,,0.01,,2013-04-26 08:52:00,
2013-04-26 04:01:00,47.0,37.0,30.40,SSE,150,0.0,0.0,68,0.00,,,0.01,,2013-04-26 09:01:00,
2013-04-26 04:11:00,47.0,37.0,30.40,SSE,150,0.0,0.0,68,0.00,,,0.01,,2013-04-26 09:11:00,
2013-04-26 04:21:00,47.0,37.0,30.40,SSE,150,0.0,0.0,68,0.00,,,0.01,,2013-04-26 09:21:00,
2013-04-26 04:33:00,47.0,36.0,30.40,SE,138,0.0,0.0,66,0.00,,,0.01,,2013-04-26 09:33:00,
2013-04-26 04:42:00,47.0,36.0,30.40,SE,138,0.0,0.0,66,0.00,,,0.01,,2013-04-26 09:42:00,
2013-04-26 04:53:00,48.0,37.0,30.40,SSE,159,0.0,0.0,65,0.00,,,0.01,,2013-04-26 09:53:00,
2013-04-26 05:03:00,48.0,36.0,30.39,SE,146,0.0,0.0,63,0.00,,,0.01,,2013-04-26 10:03:00,
2013-04-26 05:12:00,48.0,36.0,30.39,SE,146,0.0,0.0,63,0.00,,,0.01,,2013-04-26 10:12:00,
2013-04-26 05:23:00,48.0,36.0,30.39,SE,146,0.0,0.0,64,0.00,,,0.01,,2013-04-26 10:23:00,
2013-04-26 05:33:00,48.0,36.0,30.39,SE,135,0.0,0.0,63,0.00,,,0.01,,2013-04-26 10:33:00,
2013-04-26 05:42:00,48.0,36.0,30.39,SE,135,0.0,0.0,63,0.00,,,0.01,,2013-04-26 10:42:00,
2013-04-26 05:52:00,47.0,35.0,30.39,SE,134,0.0,0.0,64,0.00,,,0.01,,2013-04-26 10:52:00,
2013-04-26 06:02:00,47.0,35.0,30.39,ESE,108,0.0,0.0,64,0.00,,,0.01,,2013-04-26 11:02:00,
2013-04-26 06:11:00,47.0,35.0,30.39,ESE,108,0.0,0.0,64,0.00,,,0.01,,2013-04-26 11:11:00,
2013-04-26 06:22:00,47.0,35.0,30.39,ESE,117,0.0,0.0,64,0.00,,,0.01,,2013-04-26 11:22:00,
2013-04-26 06:32:00,47.0,35.0,30.39,ESE,119,0.0,0.0,64,0.00,,,0.01,,2013-04-26 11:32:00,
2013-04-26 06:42:00,47.0,35.0,30.39,ESE,119,0.0,0.0,64,0.00,,,0.01,,2013-04-26 11:42:00,
2013-04-26 06:52:00,47.0,36.0,30.39,SE,136,0.0,0.0,65,0.00,,,0.01,,2013-04-26 11:52:00,
2013-04-26 07:01:00,48.0,37.0,30.39,SE,126,0.0,0.0,65,0.00,,,0.01,,2013-04-26 12:01:00,
2013-04-26 07:11:00,48.0,37.0,30.39,SE,126,0.0,0.0,65,0.00,,,0.01,,2013-04-26 12:11:00,
2013-04-26 07:21:00,49.0,37.0,30.40,East,94,0.0,0.0,62,0.00,,,0.01,,2013-04-26 12:21:00,
2013-04-26 07:32:00,49.0,37.0,30.40,SE,144,0.0,0.0,62,0.00,,,0.01,,2013-04-26 12:32:00,
2013-04-26 07:42:00,49.0,37.0,30.40,SE,144,0.0,0.0,62,0.00,,,0.01,,2013-04-26 12:42:00,
2013-04-26 07:52:00,50.0,36.0,30.41,SE,140,0.0,0.0,59,0.00,,,0.01,,2013-04-26 12:52:00,
2013-04-26 08:01:00,51.0,37.0,30.42,ESE,103,0.0,0.0,58,0.00,,,0.01,,2013-04-26 13:01:00,
2013-04-26 08:11:00,51.0,37.0,30.42,ESE,103,0.0,0.0,58,0.00,,,0.01,,2013-04-26 13:11:00,
2013-04-26 08:21:00,52.0,37.0,30.42,SSE,150,0.0,0.0,57,0.00,,,0.01,,2013-04-26 13:21:00,
2013-04-26 08:31:00,52.0,37.0,30.41,SE,146,0.0,0.0,56,0.00,,,0.01,,2013-04-26 13:31:00,
2013-04-26 08:42:00,52.0,37.0,30.41,SE,146,0.0,0.0,56,0.00,,,0.01,,2013-04-26 13:42:00,
2013-04-26 08:52:00,52.0,36.0,30.43,East,82,0.0,0.0,55,0.00,,,0.01,,2013-04-26 13:52:00,
2013-04-26 09:01:00,53.0,37.0,30.43,South,190,0.0,0.0,55,0.00,,,0.01,,2013-04-26 14:01:00,
2013-04-26 09:11:00,53.0,37.0,30.43,South,190,0.0,0.0,55,0.00,,,0.01,,2013-04-26 14:11:00,
2013-04-26 09:21:00,54.0,37.0,30.44,SSE,153,0.0,0.0,53,0.00,,,0.01,,2013-04-26 14:21:00,
2013-04-26 09:32:00,54.0,37.0,30.45,SE,142,0.0,0.0,52,0.00,,,0.01,,2013-04-26 14:32:00,
2013-04-26 09:41:00,54.0,37.0,30.45,SE,142,0.0,0.0,52,0.00,,,0.01,,2013-04-26 14:41:00,
2013-04-26 09:52:00,54.0,38.0,30.46,SSE,149,0.0,0.0,54,0.00,,,0.01,,2013-04-26 14:52:00,
2013-04-26 10:01:00,55.0,39.0,30.46,SSE,157,0.0,0.0,55,0.00,,,0.01,,2013-04-26 15:01:00,
2013-04-26 10:12:00,55.0,39.0,30.46,SSE,157,0.0,0.0,55,0.00,,,0.01,,2013-04-26 15:12:00,
2013-04-26 10:21:00,55.0,41.0,30.46,South,176,0.0,0.0,58,0.00,,,0.01,,2013-04-26 15:21:00,
2013-04-26 10:33:00,56.0,39.0,30.46,South,171,0.0,7.0,53,0.00,,,0.01,,2013-04-26 15:33:00,
2013-04-26 10:43:00,56.0,39.0,30.46,South,171,0.0,7.0,53,0.00,,,0.01,,2013-04-26 15:43:00,
2013-04-26 10:53:00,57.0,40.0,30.46,South,178,0.0,7.0,52,0.00,,,0.01,,2013-04-26 15:53:00,
2013-04-26 11:03:00,57.0,39.0,30.46,SSE,162,1.0,7.0,51,0.00,,,0.01,,2013-04-26 16:03:00,
2013-04-26 11:12:00,57.0,39.0,30.46,SSE,162,1.0,7.0,51,0.00,,,0.01,,2013-04-26 16:12:00,
2013-04-26 11:23:00,58.0,41.0,30.46,SE,144,0.0,0.0,53,0.00,,,0.01,,2013-04-26 16:23:00,
2013-04-26 11:33:00,58.0,39.0,30.45,ESE,121,0.0,0.0,49,0.00,,,0.01,,2013-04-26 16:33:00,
2013-04-26 11:42:00,58.0,39.0,30.45,ESE,121,0.0,0.0,49,0.00,,,0.01,,2013-04-26 16:42:00,
2013-04-26 11:52:00,57.0,39.0,30.45,SSE,155,0.0,0.0,51,0.00,,,0.01,,2013-04-26 16:52:00,
2013-04-26 12:02:00,57.0,39.0,30.45,SE,135,0.0,1.0,51,0.00,,,0.01,,2013-04-26 17:02:00,
2013-04-26 12:12:00,57.0,39.0,30.45,SE,135,0.0,1.0,51,0.00,,,0.01,,2013-04-26 17:12:00,
2013-04-26 12:22:00,58.0,39.0,30.43,SE,142,0.0,4.0,50,0.00,,,0.01,,2013-04-26 17:22:00,
2013-04-26 12:31:00,59.0,39.0,30.42,SE,142,0.0,1.0,48,0.00,,,0.01,,2013-04-26 17:31:00,
2013-04-26 12:42:00,59.0,39.0,30.42,SE,142,0.0,1.0,48,0.00,,,0.01,,2013-04-26 17:42:00,
2013-04-26 12:52:00,60.0,41.0,30.42,SSE,158,0.0,0.0,50,0.00,,,0.01,,2013-04-26 17:52:00,
2013-04-26 13:02:00,61.0,41.0,30.40,SE,130,0.0,1.0,47,0.00,,,0.01,,2013-04-26 18:02:00,
2013-04-26 13:12:00,61.0,41.0,30.40,SE,130,0.0,1.0,47,0.00,,,0.01,,2013-04-26 18:12:00,
2013-04-26 13:22:00,61.0,40.0,30.40,South,178,0.0,0.0,46,0.00,,,0.01,,2013-04-26 18:22:00,
2013-04-26 13:33:00,62.0,41.0,30.39,SSE,162,0.0,0.0,46,0.00,,,0.01,,2013-04-26 18:33:00,
2013-04-26 13:42:00,62.0,41.0,30.39,SSE,162,0.0,0.0,46,0.00,,,0.01,,2013-04-26 18:42:00,
2013-04-26 13:52:00,62.0,42.0,30.38,SSW,195,0.0,0.0,47,0.00,,,0.01,,2013-04-26 18:52:00,
2013-04-26 14:01:00,60.0,41.0,30.39,SW,221,6.0,13.0,50,0.00,,,0.01,,2013-04-26 19:01:00,
2013-04-26 14:12:00,60.0,41.0,30.39,SW,221,6.0,13.0,50,0.00,,,0.01,,2013-04-26 19:12:00,
2013-04-26 14:22:00,60.0,42.0,30.39,South,189,1.0,12.0,51,0.00,,,0.01,,2013-04-26 19:22:00,
2013-04-26 14:32:00,59.0,42.0,30.40,SSW,203,0.0,0.0,53,0.00,,,0.01,,2013-04-26 19:32:00,
2013-04-26 14:41:00,59.0,42.0,30.40,SSW,203,0.0,0.0,53,0.00,,,0.01,,2013-04-26 19:41:00,
2013-04-26 14:52:00,59.0,42.0,30.41,SSW,208,0.0,8.0,54,0.00,,,0.01,,2013-04-26 19:52:00,
2013-04-26 15:02:00,58.0,43.0,30.42,SSW,211,0.0,7.0,57,0.00,,,0.01,,2013-04-26 20:02:00,
2013-04-26 15:11:00,58.0,43.0,30.42,SSW,211,0.0,7.0,57,0.00,,,0.01,,2013-04-26 20:11:00,
2013-04-26 15:21:00,58.0,43.0,30.41,SW,216,8.0,11.0,58,0.00,,,0.01,,2013-04-26 20:21:00,
2013-04-26 15:32:00,58.0,43.0,30.41,SSW,205,8.0,13.0,58,0.00,,,0.01,,2013-04-26 20:32:00,
2013-04-26 15:42:00,58.0,43.0,30.41,SSW,205,8.0,13.0,58,0.00,,,0.01,,2013-04-26 20:42:00,
2013-04-26 15:52:00,57.0,44.0,30.40,South,189,6.0,12.0,61,0.00,,,0.01,,2013-04-26 20:52:00,
2013-04-26 16:01:00,56.0,46.0,30.39,South,188,7.0,12.0,68,0.00,,,0.01,,2013-04-26 21:01:00,
2013-04-26 16:11:00,56.0,46.0,30.39,South,188,7.0,12.0,68,0.00,,,0.01,,2013-04-26 21:11:00,
2013-04-26 16:22:00,55.0,44.0,30.38,South,172,5.0,9.0,67,0.00,,,0.00,,2013-04-26 21:22:00,
2013-04-26 16:33:00,56.0,45.0,30.37,South,185,0.0,1.0,66,0.00,,,0.00,,2013-04-26 21:33:00,
2013-04-26 16:42:00,56.0,45.0,30.37,South,185,0.0,1.0,66,0.00,,,0.00,,2013-04-26 21:42:00,
2013-04-26 16:53:00,56.0,44.0,30.37,SSW,194,0.0,2.0,64,0.00,,,0.00,,2013-04-26 21:53:00,
2013-04-26 17:02:00,56.0,45.0,30.36,South,178,0.0,0.0,66,0.00,,,0.00,,2013-04-26 22:02:00,
2013-04-26 17:12:00,56.0,45.0,30.36,South,178,0.0,0.0,66,0.00,,,0.00,,2013-04-26 22:12:00,
2013-04-26 17:23:00,56.0,45.0,30.36,ESE,102,0.0,0.0,67,0.00,,,0.00,,2013-04-26 22:23:00,
2013-04-26 17:33:00,55.0,43.0,30.36,ESE,102,0.0,0.0,65,0.00,,,0.00,,2013-04-26 22:33:00,
2013-04-26 17:42:00,55.0,43.0,30.36,ESE,102,0.0,0.0,65,0.00,,,0.00,,2013-04-26 22:42:00,
2013-04-26 17:52:00,55.0,44.0,30.36,SE,146,0.0,0.0,66,0.00,,,0.00,,2013-04-26 22:52:00,
2013-04-26 18:02:00,55.0,44.0,30.37,South,169,0.0,0.0,67,0.00,,,0.00,,2013-04-26 23:02:00,
2013-04-26 18:11:00,55.0,44.0,30.37,South,169,0.0,0.0,67,0.00,,,0.00,,2013-04-26 23:11:00,
2013-04-26 18:21:00,55.0,44.0,30.36,SE,137,0.0,0.0,66,0.00,,,0.00,,2013-04-26 23:21:00,
2013-04-26 18:32:00,55.0,44.0,30.36,SSE,148,0.0,0.0,67,0.00,,,0.00,,2013-04-26 23:32:00,
2013-04-26 18:42:00,55.0,44.0,30.36,SSE,148,0.0,0.0,67,0.00,,,0.00,,2013-04-26 23:42:00,
2013-04-26 18:52:00,55.0,44.0,30.37,SSE,167,0.0,0.0,67,0.00,,,0.00,,2013-04-26 23:52:00,
2013-04-26 19:01:00,55.0,45.0,30.36,SSE,158,0.0,0.0,69,0.00,,,0.00,,2013-04-27 00:01:00,
2013-04-26 19:11:00,55.0,45.0,30.36,SSE,158,0.0,0.0,69,0.00,,,0.00,,2013-04-27 00:11:00,
2013-04-26 19:21:00,55.0,45.0,30.36,SSE,158,0.0,0.0,69,0.00,,,0.00,,2013-04-27 00:21:00,
2013-04-26 19:32:00,55.0,45.0,30.36,SSE,158,0.0,0.0,70,0.00,,,0.00,,2013-04-27 00:32:00,
2013-04-26 19:42:00,55.0,45.0,30.36,SSE,158,0.0,0.0,70,0.00,,,0.00,,2013-04-27 00:42:00,
2013-04-26 19:52:00,55.0,46.0,30.35,SSE,158,0.0,0.0,71,0.00,,,0.00,,2013-04-27 00:52:00,
2013-04-26 20:01:00,54.0,45.0,30.35,SE,140,0.0,0.0,71,0.00,,,0.00,,2013-04-27 01:01:00,
2013-04-26 20:12:00,54.0,45.0,30.35,SE,140,0.0,0.0,71,0.00,,,0.00,,2013-04-27 01:12:00,
2013-04-26 20:21:00,54.0,45.0,30.34,SE,140,0.0,0.0,72,0.00,,,0.00,,2013-04-27 01:21:00,
2013-04-26 20:32:00,54.0,46.0,30.34,SE,140,0.0,0.0,73,0.00,,,0.00,,2013-04-27 01:32:00,
2013-04-26 20:42:00,54.0,46.0,30.34,SE,140,0.0,0.0,73,0.00,,,0.00,,2013-04-27 01:42:00,
2013-04-26 20:52:00,54.0,46.0,30.34,SE,140,0.0,0.0,73,0.00,,,0.00,,2013-04-27 01:52:00,
2013-04-26 21:01:00,53.0,45.0,30.32,SE,140,0.0,0.0,75,0.00,,,0.00,,2013-04-27 02:01:00,
2013-04-26 21:11:00,53.0,45.0,30.32,SE,140,0.0,0.0,75,0.00,,,0.00,,2013-04-27 02:11:00,
2013-04-26 21:22:00,53.0,46.0,30.31,SE,140,0.0,0.0,76,0.00,,,0.00,,2013-04-27 02:22:00,
2013-04-26 21:32:00,52.0,45.0,30.34,NNW,348,0.0,0.0,77,0.00,,,0.00,,2013-04-27 02:32:00,
2013-04-26 21:42:00,52.0,45.0,30.34,NNW,348,0.0,0.0,77,0.00,,,0.00,,2013-04-27 02:42:00,
2013-04-26 21:52:00,53.0,46.0,30.36,NNW,348,0.0,0.0,78,0.00,,,0.00,,2013-04-27 02:52:00,
2013-04-26 22:02:00,52.0,46.0,30.38,NNW,348,0.0,0.0,80,0.00,,,0.00,,2013-04-27 03:02:00,
2013-04-26 22:11:00,52.0,46.0,30.38,NNW,348,0.0,0.0,80,0.00,,,0.00,,2013-04-27 03:11:00,
2013-04-26 22:22:00,52.0,46.0,30.39,NNW,348,0.0,0.0,80,0.00,,,0.00,,2013-04-27 03:22:00,
2013-04-26 22:33:00,52.0,46.0,30.38,NNW,348,0.0,0.0,81,0.00,,,0.00,,2013-04-27 03:33:00,
2013-04-26 22:43:00,52.0,46.0,30.38,NNW,348,0.0,0.0,81,0.00,,,0.00,,2013-04-27 03:43:00,
2013-04-26 22:53:00,52.0,46.0,30.38,ESE,111,0.0,0.0,81,0.00,,,0.00,,2013-04-27 03:53:00,
2013-04-26 23:02:00,51.0,46.0,30.37,ESE,111,0.0,0.0,82,0.00,,,0.00,,2013-04-27 04:02:00,
2013-04-26 23:12:00,51.0,46.0,30.37,ESE,111,0.0,0.0,82,0.00,,,0.00,,2013-04-27 04:12:00,
2013-04-26 23:22:00,51.0,46.0,30.34,ESE,111,0.0,0.0,82,0.00,,,0.00,,2013-04-27 04:22:00,
2013-04-26 23:33:00,51.0,46.0,30.33,ESE,111,0.0,0.0,82,0.00,,,0.00,,2013-04-27 04:33:00,
2013-04-26 23:43:00,51.0,46.0,30.33,ESE,111,0.0,0.0,82,0.00,,,0.00,,2013-04-27 04:43:00,
2013-04-26 23:53:00,51.0,46.0,30.36,ESE,111,0.0,0.0,83,0.00,,,0.00,,2013-04-27 04:53:00,